Back to catalog

THOR AGENA D R/B

AlivePO
NORAD 2255·ROCKET BODY·🇺🇸 United States

Launched Jun 24, 1966 from Vandenberg Space Force Base

Loading…

Next Passes (next 24 hours)

TLE

FreshSource: Space-Track

Epoch: Sep 14, 2026, 04:45 UTC

1 02255U 66056B   26257.19812736  .00000002  00000-0  19253-3 0  9991
2 02255  86.9845 171.2087 0047507  27.8170 332.5164  7.94755977747394

Track THOR AGENA D R/B in real time with AllMySat

Download on the App Store